GFSSE_sfc_thetae_144.txt.gz
Theta_e
343 354 350 352 352 351 350 351 352 353 354 354 354 354 354 355 355 355 356 356 356 356 355 353 355 355 353 353 353 351 350 348 347 347 345 343 346 343 342 339 343 345 348
347 353 348 351 351 350 350 351 352 354 355 355 354 354 354 354 355 355 355 355 357 355 352 353 355 354 351 351 350 350 347 344 343 343 341 341 344 344 343 339 343 344 346
348 353 353 349 350 350 350 351 353 355 356 355 355 354 354 354 355 355 354 355 356 355 352 352 352 352 351 349 348 347 347 345 344 344 345 341 343 342 342 339 340 344 344
350 354 352 348 349 349 350 351 353 355 355 354 354 354 354 354 354 355 354 353 354 354 352 351 352 350 348 347 346 345 345 344 344 345 343 342 341 343 342 342 341 344 344
349 353 353 347 347 349 349 350 351 353 353 353 352 353 354 354 354 354 352 351 353 354 353 352 351 348 346 345 345 346 345 345 344 344 342 343 342 342 344 342 341 342 343
348 352 347 344 346 348 349 350 351 351 350 350 351 353 354 354 354 352 351 350 353 354 354 353 350 347 344 343 344 344 342 342 341 342 342 343 343 342 342 343 340 341 342
347 351 354 343 346 348 350 350 350 349 349 349 350 351 352 353 352 350 349 349 351 353 353 351 347 344 343 342 342 341 340 340 344 340 339 343 344 343 342 342 342 342 341
348 351 355 346 346 347 348 348 347 347 346 347 348 349 350 350 349 348 348 348 349 349 349 347 344 343 342 341 340 338 338 338 341 341 341 343 341 342 342 340 341 340 339
350 352 354 354 350 345 344 344 343 344 344 345 346 346 346 345 344 345 346 347 348 347 345 344 342 340 340 340 338 336 336 338 341 340 338 341 341 342 340 338 338 339 338
349 351 352 353 353 353 353 343 341 342 342 343 344 343 342 341 342 343 343 345 346 345 344 342 340 339 339 337 336 334 334 337 342 340 339 340 341 341 340 338 337 336 336
344 348 351 351 348 350 351 350 343 342 341 341 343 342 340 349 348 346 343 342 343 343 342 341 339 337 336 336 335 334 334 340 340 341 338 337 341 341 340 338 338 336 335
338 343 347 349 347 347 346 348 352 350 349 350 350 352 351 350 349 345 342 340 341 340 340 339 338 336 335 340 340 335 339 340 340 339 339 336 341 340 340 338 337 335 335
337 339 343 346 348 344 346 345 346 349 349 350 351 351 352 349 350 347 345 342 346 341 343 341 341 342 342 340 339 339 339 341 340 339 337 335 338 340 340 338 336 335 334
335 337 341 344 345 345 346 345 344 344 347 348 349 352 350 346 349 347 343 341 341 341 341 342 341 342 342 342 340 340 340 338 337 342 336 331 334 337 339 338 337 336 335
335 336 338 343 344 344 346 345 346 345 346 348 349 347 350 348 347 348 346 343 340 339 340 340 341 341 342 341 340 339 338 338 340 337 338 330 331 336 338 339 338 337 335
326 336 338 340 344 344 343 345 345 346 346 347 347 346 347 349 347 346 347 345 340 338 339 341 340 340 340 340 339 339 338 337 338 338 335 332 328 331 335 337 337 336 335
320 324 338 340 342 343 342 344 344 344 345 344 345 348 347 347 346 347 346 345 342 340 341 341 341 341 339 338 338 339 337 337 337 334 335 334 331 326 329 333 334 335 334
318 319 325 339 342 342 342 342 342 342 344 344 344 346 345 346 345 344 342 345 345 341 339 339 339 339 337 336 336 335 335 335 336 335 332 332 332 332 329 330 331 334 333
315 317 319 323 336 343 343 341 342 344 343 342 344 344 345 344 344 344 343 342 346 340 340 339 338 338 334 334 334 335 335 334 335 333 332 330 332 332 333 328 328 329 331
317 318 319 320 322 335 342 342 342 342 341 342 342 343 346 342 344 343 341 342 341 340 339 337 337 337 335 334 331 331 333 334 333 335 334 332 334 335 336 336 334 331 327
318 317 317 319 322 323 327 335 337 337 340 341 342 344 344 345 345 343 340 343 342 340 340 339 337 332 333 333 331 331 330 332 333 333 334 334 333 330 335 335 335 331 330
315 317 318 318 319 320 320 327 334 337 337 340 342 344 344 343 344 344 342 340 340 338 339 335 332 329 332 333 327 325 318 324 328 330 331 331 333 328 332 333 333 331 329
314 316 316 318 318 320 324 322 330 337 338 338 339 341 344 342 343 343 343 341 337 336 335 334 332 329 325 328 333 327 317 318 323 329 328 329 330 330 332 332 329 331 330
315 317 318 319 320 322 325 325 327 332 332 337 336 337 338 342 340 341 341 341 334 333 333 333 333 330 328 324 327 330 331 328 321 320 324 326 330 329 332 330 327 328 330
305 311 321 321 324 327 329 331 328 333 335 337 336 333 333 338 340 339 341 340 336 338 332 334 333 331 329 327 325 327 328 328 329 324 320 320 324 326 329 329 328 329 330
297 300 306 316 320 322 333 335 333 334 337 337 337 332 333 335 336 338 339 339 340 335 330 329 333 331 329 328 327 327 328 326 324 324 323 324 322 323 328 329 329 329 330

GFSSE_sfc_thetae_150.txt.gz
Theta_e
347 348 350 352 352 352 352 353 354 353 354 355 355 355 356 356 356 355 356 356 356 357 354 353 353 353 352 352 351 351 350 349 348 347 347 347 345 342 341 342 342 340 342
350 349 349 350 351 351 352 353 354 354 355 355 355 355 355 355 355 355 356 356 356 356 353 353 354 354 352 351 350 349 348 346 344 345 346 344 343 342 343 342 343 340 342
350 350 350 349 350 351 353 354 355 355 355 355 355 354 355 355 355 355 355 355 355 355 353 352 353 352 351 350 348 347 345 344 343 344 345 338 339 342 342 341 341 341 341
352 350 349 348 349 351 352 353 354 356 355 355 355 354 355 355 355 355 355 355 355 354 353 352 352 351 349 348 347 346 345 343 341 341 339 339 337 340 342 341 340 341 339
352 351 351 346 347 350 351 353 354 355 354 353 353 354 354 355 355 355 353 353 354 354 353 352 352 349 347 345 345 345 344 343 342 340 338 338 336 339 342 342 340 340 339
351 352 344 345 347 349 351 352 353 353 352 351 352 353 354 354 355 353 351 352 354 354 354 352 349 347 343 342 342 342 341 340 338 339 340 339 338 341 341 339 339 338 337
352 351 348 344 346 348 350 352 352 351 350 350 351 352 353 354 353 351 350 350 352 353 354 352 347 344 342 342 342 341 340 340 338 337 338 337 338 341 341 340 339 339 340
354 355 349 346 346 347 348 349 348 348 348 348 349 350 351 351 350 349 348 349 350 351 350 348 344 343 342 342 341 340 339 339 338 339 338 336 340 341 341 340 342 341 340
353 357 354 349 347 346 345 344 344 345 346 346 347 347 348 347 346 347 347 348 349 348 347 345 343 342 341 341 340 339 337 338 336 335 339 336 341 341 341 341 340 340 339
353 357 356 352 350 349 348 344 343 343 343 344 345 345 344 344 344 345 345 346 347 347 346 344 341 340 340 339 338 337 336 337 335 336 338 336 341 342 341 340 339 337 338
349 353 358 354 351 352 350 346 343 344 343 343 344 344 340 347 346 345 344 343 346 345 343 342 340 339 338 338 337 336 335 335 336 335 336 336 341 341 340 339 338 338 337
344 348 352 355 353 353 349 349 347 347 346 346 347 347 348 346 346 344 342 342 344 342 341 340 339 337 336 336 334 334 334 335 332 335 335 336 341 340 340 338 337 336 336
326 344 347 353 355 353 349 350 349 347 346 346 347 348 347 346 346 342 342 342 342 341 340 338 337 336 335 334 334 334 334 334 333 335 334 336 340 341 339 336 335 334 335
324 326 346 348 351 351 348 346 349 345 346 346 346 348 347 345 345 342 343 342 341 340 339 338 337 336 336 335 338 333 333 333 335 334 332 333 338 340 338 335 334 335 334
319 324 336 345 350 348 347 347 346 344 345 346 346 347 348 345 345 344 342 343 340 339 338 337 337 337 336 336 337 335 334 333 334 336 331 330 333 337 336 337 335 335 334
318 319 321 331 345 347 345 344 346 347 344 348 345 346 347 347 343 346 343 343 339 338 337 337 336 337 336 335 337 336 334 332 335 335 332 329 329 333 335 336 335 337 336
317 320 320 320 323 344 344 344 343 344 344 344 345 348 347 346 346 345 344 343 340 338 339 337 339 337 336 335 333 335 334 334 334 333 332 331 327 327 331 334 335 337 336
314 316 319 322 324 324 333 342 342 342 344 343 344 344 347 347 348 346 343 341 343 340 338 337 336 334 334 333 331 332 333 333 333 333 333 330 329 330 327 330 333 336 336
312 312 313 315 317 320 324 330 332 342 341 343 344 344 345 348 346 344 344 342 343 341 337 335 335 334 332 332 333 332 332 331 332 332 331 331 331 328 328 328 329 331 333
310 310 310 311 312 315 322 322 328 340 339 340 340 343 343 347 345 342 344 343 341 341 337 335 333 335 333 332 332 331 331 331 332 330 331 331 330 328 328 328 327 327 328
309 307 307 307 308 311 314 319 320 321 335 339 340 341 343 344 346 342 341 343 341 340 338 334 334 332 332 333 326 326 328 332 331 330 331 328 328 329 329 328 328 328 327
304 305 305 304 305 307 308 310 317 322 320 328 337 339 340 342 344 343 341 340 340 339 339 336 333 331 332 333 326 324 317 322 326 328 330 329 328 327 329 329 328 327 327
301 301 301 302 302 304 303 305 308 313 323 322 321 336 339 341 342 340 342 339 339 340 337 337 334 333 330 331 330 323 317 315 320 325 327 327 328 328 328 329 329 330 329
301 301 299 300 299 301 300 300 301 303 306 313 321 326 332 340 340 342 341 340 339 339 338 337 337 334 332 328 327 330 328 323 317 315 324 326 327 328 328 328 329 329 330
302 300 299 298 297 297 298 298 298 299 302 305 313 320 326 334 338 341 339 340 339 339 337 337 335 334 333 329 326 323 325 325 325 320 316 321 325 327 329 329 327 328 330
299 298 297 296 295 295 296 296 296 296 298 301 305 315 325 330 335 337 338 338 339 338 336 335 334 333 330 328 326 325 323 321 322 321 319 319 320 322 326 327 328 329 329

GFSSE_sfc_thetae_153.txt.gz
Theta_e
342 347 349 352 352 352 352 352 351 352 352 353 354 354 354 354 354 355 355 355 356 356 354 353 354 354 352 352 350 350 348 348 347 348 347 345 343 343 343 343 342 340 342
345 348 348 350 351 351 352 352 352 352 353 354 354 354 353 353 354 354 354 354 355 356 354 353 355 353 352 350 350 349 348 346 345 346 346 344 344 344 343 342 342 341 342
345 348 348 348 350 352 353 353 353 354 354 354 354 353 353 354 354 354 354 354 355 355 353 353 353 352 351 349 348 347 346 344 343 345 344 337 339 343 343 341 342 341 339
347 347 347 347 349 351 352 353 353 355 354 353 353 353 353 354 354 354 354 352 353 355 353 353 352 351 349 347 345 345 344 342 341 340 337 338 336 342 342 341 341 339 338
345 347 347 345 347 350 351 352 353 353 352 352 352 353 354 353 354 354 353 352 353 354 353 352 352 349 347 345 343 343 343 341 340 339 337 335 334 341 342 341 340 337 337
345 347 343 343 346 349 350 352 352 352 350 350 351 352 353 354 353 352 351 351 353 353 354 352 350 347 343 342 342 341 341 339 338 335 336 339 335 341 342 341 339 338 337
346 345 344 343 345 348 351 352 350 350 349 349 350 351 352 353 352 350 349 350 351 352 352 350 347 343 341 340 339 338 337 338 337 335 337 335 337 342 342 340 339 338 337
347 345 345 345 345 346 348 348 348 348 348 347 348 349 350 350 349 348 347 348 349 349 349 347 342 341 341 340 340 339 338 337 337 336 336 334 340 341 341 340 339 340 340
349 345 344 344 345 344 343 344 344 345 345 345 346 346 347 346 346 346 346 347 348 348 347 344 341 340 340 339 339 337 336 337 332 337 337 336 342 341 341 341 341 340 339
347 347 344 343 342 341 341 341 341 342 343 343 344 343 343 343 344 344 344 345 347 346 345 343 340 339 339 338 337 336 335 335 332 335 335 335 341 342 342 340 339 337 337
341 346 345 344 343 341 341 342 341 342 342 342 343 342 339 343 343 343 342 342 345 344 343 341 340 338 337 337 336 335 334 332 333 335 334 337 341 342 341 339 339 337 336
335 341 346 345 343 344 346 341 339 341 340 342 343 343 342 342 341 344 341 340 343 342 341 340 338 337 336 333 333 334 331 332 331 333 331 336 341 342 341 339 338 337 337
315 318 338 346 346 345 345 342 341 341 340 340 342 342 342 343 341 341 338 340 340 340 338 337 335 334 334 332 332 331 331 331 332 334 332 335 339 342 340 338 337 336 336
314 316 318 330 343 343 343 343 343 342 341 340 340 342 341 340 338 339 337 338 339 338 335 334 333 333 332 332 332 332 331 330 332 332 331 332 337 341 340 338 336 335 335
311 313 314 318 323 329 340 340 339 341 341 341 340 341 343 340 338 338 338 338 338 337 336 334 334 333 332 332 332 332 330 331 331 332 330 330 333 338 340 338 337 336 334
309 309 311 312 315 317 322 338 339 338 337 340 341 342 343 342 339 339 338 338 337 337 336 335 334 334 332 332 331 332 330 331 334 330 330 330 330 334 337 337 336 337 336
306 307 307 309 310 310 315 321 331 337 340 337 342 340 343 342 340 339 339 338 337 336 335 334 334 334 333 332 331 332 333 331 334 331 330 328 330 328 331 334 335 336 337
305 304 305 307 306 306 309 316 324 330 337 337 339 341 342 343 342 340 340 339 337 335 334 333 333 332 332 331 329 328 332 332 331 332 330 330 328 329 327 330 333 335 337
303 303 303 303 303 304 307 312 313 319 330 337 339 339 339 341 341 342 341 340 337 335 334 334 332 333 330 330 330 328 328 327 330 331 330 330 328 327 326 327 328 330 333
301 301 301 302 302 302 304 304 307 312 317 323 335 334 337 339 341 342 341 340 337 338 334 333 332 331 331 330 331 328 328 329 329 330 329 329 328 327 326 326 326 327 328
299 299 299 298 299 299 299 298 301 303 307 316 327 328 327 338 339 341 341 340 338 337 336 332 329 329 329 329 324 325 323 325 326 329 329 328 327 326 327 327 326 326 327
297 297 297 297 296 297 297 297 299 301 306 310 315 312 318 330 337 339 339 338 339 338 334 331 329 328 330 328 325 318 314 318 324 325 327 327 325 327 326 327 326 325 326
296 296 296 296 295 295 295 296 296 299 301 303 303 306 310 315 319 334 337 338 337 339 336 335 332 329 327 330 330 320 312 313 315 322 324 325 323 325 326 327 327 326 325
295 295 295 295 295 295 294 294 293 293 294 298 299 304 305 312 317 324 335 337 337 337 335 334 335 332 330 326 324 328 322 319 315 312 320 324 325 325 324 327 327 327 326
293 292 293 295 294 294 293 292 292 291 293 296 299 300 304 309 313 319 327 334 335 336 334 333 333 331 331 328 328 326 321 321 321 318 312 317 323 326 327 326 327 327 328
292 291 291 291 293 293 293 292 291 290 291 292 296 298 300 305 309 317 326 331 333 336 332 334 333 332 331 330 330 327 324 322 319 319 317 316 319 323 326 328 327 328 329

GFSSE_sfc_thetae_156.txt.gz
Theta_e
341 346 349 352 352 352 351 350 350 350 351 353 353 353 353 353 354 354 354 355 355 355 352 352 353 352 351 350 349 350 349 347 347 347 345 343 344 345 344 343 342 339 341
343 347 347 350 352 352 352 351 351 351 352 353 353 353 352 352 354 353 354 354 355 354 352 353 352 352 350 349 349 348 347 345 346 346 345 345 344 343 342 342 341 338 341
344 347 348 348 351 352 353 352 352 353 353 353 353 353 353 353 354 353 353 354 354 354 352 352 352 351 349 348 348 347 345 344 345 344 341 337 338 342 342 341 340 339 337
345 346 346 347 350 352 352 352 353 354 353 353 353 353 353 353 353 353 353 351 353 354 352 352 351 350 348 346 346 345 343 342 343 341 337 336 338 342 342 341 340 338 336
344 346 347 346 348 350 351 352 352 352 351 351 351 353 353 353 353 353 351 350 353 354 352 352 350 348 346 344 343 342 341 340 340 338 335 333 336 340 342 341 338 338 338
344 345 343 343 346 349 351 352 351 351 349 349 350 352 352 353 353 352 350 350 352 353 353 352 348 346 343 341 341 341 340 338 337 334 334 337 335 342 342 340 337 338 337
343 343 342 341 345 348 351 351 350 349 348 348 349 350 351 352 351 350 349 349 350 351 352 349 347 343 341 340 340 338 336 337 334 333 334 334 335 342 342 340 339 338 337
343 343 343 343 344 346 348 348 346 346 346 346 347 348 350 350 349 347 347 347 348 349 348 345 343 341 339 339 338 337 336 336 336 333 334 333 339 342 341 340 338 337 336
343 341 341 342 343 343 342 342 342 343 344 344 345 345 346 345 345 345 345 346 347 347 346 344 340 339 339 339 338 335 334 335 332 337 337 333 341 342 341 339 339 339 339
343 340 339 339 340 339 340 340 340 341 341 342 343 342 342 342 342 343 343 344 346 346 345 343 340 338 338 337 336 334 333 334 331 333 334 334 339 341 341 341 340 338 337
325 330 340 339 339 338 338 341 340 341 340 339 341 341 339 342 342 342 341 342 344 344 343 342 339 337 336 336 335 334 333 331 331 333 332 336 340 342 341 340 339 337 336
312 315 318 331 340 338 343 339 338 339 339 340 341 341 342 340 340 343 341 339 342 342 341 340 338 336 335 333 333 334 330 330 331 332 332 335 341 342 340 339 338 336 336
309 310 313 316 319 322 334 341 338 338 338 338 338 340 339 341 338 339 338 338 339 340 338 337 335 334 333 331 330 329 329 330 329 332 331 334 340 342 340 339 338 336 335
306 307 309 311 312 313 319 330 339 339 339 338 338 338 338 338 336 337 336 336 338 339 335 334 333 332 331 331 330 329 328 329 329 330 329 332 337 342 340 339 338 336 335
304 305 305 306 307 309 313 317 325 334 338 338 339 339 341 338 337 336 336 336 337 337 335 333 332 331 331 330 331 330 329 328 330 329 328 330 333 338 340 339 338 337 335
303 303 304 304 304 305 308 312 318 322 325 339 340 340 340 340 338 337 336 336 336 336 336 333 332 331 330 330 330 330 330 329 330 329 329 330 330 334 337 340 338 337 336
301 302 301 303 302 301 305 307 309 314 319 327 336 340 340 342 340 338 338 337 336 336 335 333 332 332 330 330 329 330 330 329 330 328 328 329 330 329 332 336 337 337 337
299 299 299 301 299 299 301 302 304 308 312 316 319 330 339 340 342 340 338 338 338 336 335 333 332 330 330 329 328 329 331 329 331 328 328 329 330 332 329 331 333 335 336
298 298 297 298 296 298 299 299 301 303 306 308 315 320 328 335 339 340 340 339 338 336 333 333 331 331 329 330 329 327 327 328 330 330 328 327 329 329 329 328 328 330 333
298 298 297 297 296 296 297 297 298 299 301 306 308 316 311 316 322 329 337 339 338 335 333 332 331 330 331 330 330 329 327 327 326 329 328 327 327 327 327 327 328 328 327
296 296 296 295 295 295 293 293 294 294 296 301 304 307 306 310 312 314 319 332 339 337 335 333 330 329 329 331 322 321 322 325 324 327 328 327 326 325 325 325 326 327 327
294 294 294 294 294 294 293 293 294 294 296 298 301 301 304 306 307 311 315 318 322 335 336 334 332 328 328 329 325 319 316 320 325 325 327 326 325 326 324 324 324 324 325
292 292 293 293 293 293 293 292 292 294 294 294 294 297 300 303 306 308 313 318 321 326 333 334 333 330 326 328 329 322 312 313 317 320 323 325 324 324 325 325 325 325 325
290 291 291 292 292 293 292 291 290 290 289 293 294 295 297 301 303 306 309 313 318 322 327 333 334 332 329 325 326 329 323 320 316 314 319 324 325 324 324 324 325 325 325
290 289 290 290 290 291 291 290 291 289 289 292 293 293 295 298 300 303 306 308 313 318 325 330 331 331 330 328 326 324 325 324 321 317 314 318 321 323 324 325 325 326 326
289 288 287 288 288 289 289 289 289 289 288 289 290 292 294 294 298 302 303 303 307 312 318 326 331 330 329 328 328 325 324 321 320 317 315 316 318 321 325 325 325 326 327